Regional Weather Roundup
Issued by NWS Sioux Falls, SD

Home | Current Version | Previous Version | Text Only | Print | Product List | Glossary Off
Versions: 1 2 3 4 5 6 7 8 9 10 11 12 13 14 15 16 17 18 19 20 21 22 23 24 25 26 27 28 29 30 31 32 33 34 35 36 37 38 39 40 41 42 43 44 45 46 47 48 49 50

000
ASUS43 KFSD 050402
RWRFSD

WEATHER ROUNDUP FOR SE SOUTH DAKOTA/SW MINNESOTA/NW IOWA
NATIONAL WEATHER SERVICE SIOUX FALLS SD
1100 PM CDT FRI SEP 04 2015

NOTE: "FAIR" INDICATES FEW OR NO CLOUDS BELOW 12,000 FEET WITH NO
SIGNIFICANT WEATHER AND OR OBSTRUCTIONS TO VISIBILITY.


SDZ038>040-050-052>070-050500-
SOUTHEAST SOUTH DAKOTA

CITY           SKY/WX    TMP DP  RH WIND       PRES   REMARKS
BROOKINGS      MOCLDY    77  70  78 S16       29.88F
CHAMBERLAIN    NOT AVBL
HURON          MOCLDY    77  72  84 SE10      29.79S
MADISON        FAIR      73  73 100 SE12G18   29.87F
MITCHELL       MOCLDY    77  72  84 SE8       29.80S
SIOUX FALLS    CLEAR     78  70  76 SE15      29.86S
WINNER         FAIR      80  63  55 S10       29.78F
YANKTON        CLEAR     77  70  78 S14       29.82S
$$

MNZ071-072-080-081-089-090-097-098-050500-
SOUTHWEST MINNESOTA

CITY           SKY/WX    TMP DP  RH WIND       PRES   REMARKS
FAIRMONT       PTCLDY    75  68  78 S9        29.94S
JACKSON        CLEAR     77  72  83 SE10      29.94F
LUVERNE        CLOUDY    77  70  78 S9        29.89S
MARSHALL       FAIR      75  68  78 S13       29.88F
MONTEVIDEO     MOCLDY    77  72  83 S12G17    29.87F
PIPESTONE      CLOUDY    75  70  83 S10       29.90S
REDWOOD FALLS  CLEAR     76  71  85 SE13      29.89S
TRACY          MOCLDY    76  73  88 S10       29.89F
WINDOM         CLEAR     75  72  88 SE9       29.92F
WORTHINGTON    CLEAR     75  68  78 S10       29.92S
$$

IAZ001>003-012>014-020>022-031-032-NEZ013-014-SDZ071-050500-
NORTHWEST IOWA

CITY           SKY/WX    TMP DP  RH WIND       PRES   REMARKS
DENISON        PTCLDY    77  70  78 SE13      29.92S
ESTHERVILLE    PTCLDY    76  71  85 S13       29.94S
SIOUX CITY     CLEAR     76  70  82 SE10      29.87S
SPENCER        CLEAR     77  70  79 SE15      29.92F
$$

ABBREVIATIONS USED IN REMARKS
   TC - TEMPERATURE IN CELSIUS
  WCI - WIND CHILL INDEX
   HX - HEAT INDEX
  VSB - VISIBILITY



USA.gov is the U.S. government's official web portal to all federal, state and local government web resources and services.